EW9135 Weather Reports


time (UTC)temp
F
wind
direction
speed
knots
gust
knots
rain 1hr
in
rain 24hr
in
rain mn
in
humidity
%
barometer
mb
20260906012446 77 314 0.0 1.7 0.00 0.00 0.00 10 1020.4
20260906012436 77 297 0.0 1.7 0.00 0.00 0.00 10 1020.1
20260906011427 78 177 0.0 1.7 0.00 0.00 0.00 10 1020.1
20260906010919 78 230 0.0 1.7 0.00 0.00 0.00 10 1020.1
20260906010410 78 254 0.0 1.7 0.00 0.00 0.00 11 1020.1
20260906005901 79 326 0.0 1.7 0.00 0.00 0.00 11 1020.1
20260906005354 79 231 0.0 1.7 0.00 0.00 0.00 11 1019.7
20260906004844 79 60 0.0 1.7 0.00 0.00 0.00 10 1019.7
20260906004335 79 16 0.0 0.9 0.00 0.00 0.00 10 1020.1
20260906003828 79 344 0.0 0.9 0.00 0.00 0.00 10 1020.1
20260906003812 79 4 0.0 0.0 0.00 0.00 0.00 10 1019.7
20260906003417 79 268 0.0 0.0 0.00 0.00 0.00 10 1019.7
20260906002305 79 261 0.0 0.9 0.00 0.00 0.00 10 1019.7
20260906001753 80 239 0.0 0.9 0.00 0.00 0.00 10 1019.7
20260906001243 80 326 0.0 0.9 0.00 0.00 0.00 10 1020.1
20260906001237 80 280 0.0 0.9 0.00 0.00 0.00 10 1020.1
20260906000226 80 318 0.0 0.9 0.00 0.00 0.00 10 1020.1
20260905235718 80 15 0.0 0.9 0.00 0.00 0.00 10 1019.7
20260905235210 80 278 0.0 0.9 0.00 0.00 0.00 10 1019.7
20260905234701 80 295 0.0 0.0 0.00 0.00 0.00 10 1019.7
20260905234152 80 343 0.0 3.5 0.00 0.00 0.00 10 1020.1
20260905233644 80 102 0.0 3.5 0.00 0.00 0.00 10 1019.7
20260905233135 81 356 0.0 1.7 0.00 0.00 0.00 10 1020.1
20260905232626 81 7 0.0 1.7 0.00 0.00 0.00 10 1020.1
20260905232119 81 16 0.0 0.9 0.00 0.00 0.00 10 1019.7
20260905231609 81 303 0.0 0.9 0.00 0.00 0.00 10 1020.1
20260905231100 81 250 0.0 0.9 0.00 0.00 0.00 10 1020.1
20260905230552 82 69 0.0 1.7 0.00 0.00 0.00 10 1020.4
20260905230043 82 258 0.0 0.9 0.00 0.00 0.00 10 1020.1
20260905225535 82 231 0.0 2.6 0.00 0.00 0.00 10 1020.4
20260905225027 82 305 0.9 2.6 0.00 0.00 0.00 10 1020.1
20260905224518 83 166 0.0 0.9 0.00 0.00 0.00 10 1020.4
20260905224008 83 195 0.0 0.9 0.00 0.00 0.00 12 1020.1
20260905223953 83 251 0.0 1.7 0.00 0.00 0.00 12 1020.1
20260905223559 83 171 0.0 0.0 0.00 0.00 0.00 10 1020.4
20260905222443 84 355 0.9 1.7 0.00 0.00 0.00 12 1020.1
20260905221935 84 192 0.0 0.9 0.00 0.00 0.00 12 1020.4
20260905221425 85 228 0.0 1.7 0.00 0.00 0.00 12 1020.1
20260905220916 85 116 0.0 1.7 0.00 0.00 0.00 12 1020.4
20260905220409 84 238 0.0 0.9 0.00 0.00 0.00 11 1020.4
20260905215859 84 44 0.0 0.0 0.00 0.00 0.00 10 1020.4
20260905215350 83 77 0.0 0.9 0.00 0.00 0.00 11 1020.4
20260905215344 83 102 0.0 0.9 0.00 0.00 0.00 11 1020.4
20260905214333 82 98 0.0 0.0 0.00 0.00 0.00 12 1020.4
20260905213824 82 338 0.0 0.0 0.00 0.00 0.00 12 1020.4
20260905213318 82 267 0.0 0.0 0.00 0.00 0.00 10 1020.7
20260905212807 82 200 0.0 0.0 0.00 0.00 0.00 12 1020.4
20260905212259 82 120 0.0 0.0 0.00 0.00 0.00 10 1020.7
20260905211751 81 180 0.0 0.9 0.00 0.00 0.00 10 1020.4
20260905211241 82 203 0.0 0.9 0.00 0.00 0.00 10 1020.7
20260905210733 81 122 0.0 0.9 0.00 0.00 0.00 12 1020.7
20260905210726 81 173 0.0 0.9 0.00 0.00 0.00 12 1020.7
20260905205716 80 151 0.0 0.9 0.00 0.00 0.00 10 1020.7
20260905205207 81 168 0.0 0.0 0.00 0.00 0.00 10 1020.7
20260905204701 81 99 0.0 0.0 0.00 0.00 0.00 10 1020.7
20260905204149 81 171 0.0 0.0 0.00 0.00 0.00 10 1020.7
20260905203641 81 143 0.0 0.9 0.00 0.00 0.00 10 1021.1
20260905203134 81 105 0.0 0.9 0.00 0.00 0.00 10 1021.1
20260905202624 81 68 0.0 0.9 0.00 0.00 0.00 10 1020.7
20260905202116 81 199 0.0 0.0 0.00 0.00 0.00 10 1021.1
20260905201608 81 346 0.0 0.9 0.00 0.00 0.00 10 1021.1
20260905201058 81 257 0.0 0.9 0.00 0.00 0.00 10 1020.7
20260905200549 80 34 0.0 0.9 0.00 0.00 0.00 12 1021.1
20260905200042 80 317 0.0 1.7 0.00 0.00 0.00 10 1021.1
20260905200035 80 296 0.0 2.6 0.00 0.00 0.00 10 1021.1
20260905195023 79 203 0.0 2.6 0.00 0.00 0.00 10 1021.4
20260905194519 79 252 0.0 0.0 0.00 0.00 0.00 10 1021.4
20260905194510 78 253 0.0 0.0 0.00 0.00 0.00 10 1021.1
20260905193503 78 312 0.0 0.0 0.00 0.00 0.00 10 1021.4
20260905192958 78 294 0.0 1.7 0.00 0.00 0.00 12 1021.4
20260905192952 78 88 0.0 1.7 0.00 0.00 0.00 12 1021.4
20260905191946 78 189 0.0 0.0 0.00 0.00 0.00 12 1021.8
20260905191442 78 268 0.0 0.0 0.00 0.00 0.00 12 1021.8
20260905190935 77 280 0.0 0.0 0.00 0.00 0.00 11 1021.8
20260905190433 77 115 0.0 0.9 0.00 0.00 0.00 12 1021.8
20260905190428 77 52 0.0 0.9 0.00 0.00 0.00 12 1021.8
20260905185419 76 194 0.0 1.7 0.00 0.00 0.00 13 1021.8
20260905184913 76 97 0.0 1.7 0.00 0.00 0.00 16 1021.8
20260905184410 76 156 0.0 1.7 0.00 0.00 0.00 19 1021.8
20260905183902 75 228 0.0 0.9 0.00 0.00 0.00 19 1021.8
20260905183357 75 151 0.0 0.0 0.00 0.00 0.00 18 1021.8
20260905182853 75 258 0.0 0.0 0.00 0.00 0.00 18 1021.8
20260905182843 75 106 0.0 0.9 0.00 0.00 0.00 20 1022.1
20260905182448 75 244 0.0 0.9 0.00 0.00 0.00 20 1021.8
20260905181336 74 68 0.0 0.9 0.00 0.00 0.00 18 1021.8
20260905180828 74 279 0.0 0.9 0.00 0.00 0.00 21 1021.8
20260905180822 74 44 0.0 0.9 0.00 0.00 0.00 22 1021.8
20260905180425 74 98 0.0 0.9 0.00 0.00 0.00 22 1021.8
20260905175313 74 291 0.0 0.0 0.00 0.00 0.00 19 1021.8
20260905175308 74 75 0.0 0.0 0.00 0.00 0.00 21 1021.8
20260905174303 74 115 0.0 0.0 0.00 0.00 0.00 19 1021.8
20260905173756 74 87 0.0 0.0 0.00 0.00 0.00 18 1021.8
20260905173748 74 78 0.0 0.9 0.00 0.00 0.00 19 1021.8
20260905173353 74 323 0.0 0.9 0.00 0.00 0.00 18 1021.8
20260905172239 73 54 0.0 0.9 0.00 0.00 0.00 17 1021.8
20260905171737 73 63 0.0 0.0 0.00 0.00 0.00 16 1021.8
20260905171731 73 238 0.0 0.0 0.00 0.00 0.00 16 1021.4
20260905171224 73 181 0.0 0.0 0.00 0.00 0.00 18 1021.4
20260905170217 72 198 0.0 0.0 0.00 0.00 0.00 15 1021.4
20260905165714 72 299 0.0 0.0 0.00 0.00 0.00 18 1021.4
20260905165708 72 263 0.0 0.0 0.00 0.00 0.00 18 1021.4
20260905164701 71 241 0.0 0.0 0.00 0.00 0.00 19 1021.8
20260905164157 71 201 0.0 0.9 0.00 0.00 0.00 19 1021.8
20260905163650 71 161 0.0 0.9 0.00 0.00 0.00 19 1021.8
20260905163144 71 210 0.0 0.0 0.00 0.00 0.00 19 1021.8
20260905162640 71 192 0.0 0.0 0.00 0.00 0.00 19 1021.4
20260905162133 70 356 0.0 0.0 0.00 0.00 0.00 19 1021.8
20260905161627 70 192 0.0 0.0 0.00 0.00 0.00 20 1021.4
20260905161124 70 314 0.0 0.0 0.00 0.00 0.00 20 1021.4
20260905160618 70 225 0.0 0.0 0.00 0.00 0.00 20 1021.4
20260905160113 70 232 0.0 0.0 0.00 0.00 0.00 20 1021.4
20260905160108 69 230 0.0 0.0 0.00 0.00 0.00 20 1021.4
20260905155100 68 42 0.0 0.0 0.00 0.00 0.00 20 1021.4
20260905154554 67 214 0.0 0.0 0.00 0.00 0.00 21 1021.4
20260905154050 66 197 0.0 0.0 0.00 0.00 0.00 22 1021.8
20260905153543 64 16 0.0 0.0 0.00 0.00 0.00 24 1021.8
20260905153038 63 204 0.0 0.0 0.00 0.00 0.00 28 1021.8
20260905152535 63 238 0.0 0.0 0.00 0.00 0.00 32 1021.4
20260905152027 62 187 0.0 0.0 0.00 0.00 0.00 33 1021.8
20260905151522 62 255 0.0 0.0 0.00 0.00 0.00 34 1021.4
20260905151018 61 216 0.0 0.0 0.00 0.00 0.00 34 1021.4
20260905150510 60 131 0.0 0.0 0.00 0.00 0.00 33 1021.4
20260905150005 59 186 0.0 0.0 0.00 0.00 0.00 32 1021.4
20260905145500 58 195 0.0 0.0 0.00 0.00 0.00 30 1021.4
20260905145454 56 181 0.0 0.0 0.00 0.00 0.00 30 1021.8
20260905144448 55 200 0.0 0.0 0.00 0.00 0.00 35 1021.8
20260905143944 55 201 0.0 0.0 0.00 0.00 0.00 40 1021.4
20260905143438 54 225 0.0 0.0 0.00 0.00 0.00 40 1021.8
20260905142932 53 205 0.0 0.0 0.00 0.00 0.00 41 1021.4
20260905142427 53 214 0.0 0.0 0.00 0.00 0.00 40 1021.4
20260905141921 53 216 0.0 0.0 0.00 0.00 0.00 40 1021.4
20260905140910 53 244 0.0 0.0 0.00 0.00 0.00 41 1021.1
20260905140404 53 222 0.0 0.0 0.00 0.00 0.00 41 1021.4
20260905135859 53 222 0.0 0.0 0.00 0.00 0.00 41 1021.1
20260905135355 53 222 0.0 0.0 0.00 0.00 0.00 41 1021.1
20260905134847 53 222 0.0 0.0 0.00 0.00 0.00 41 1021.1
20260905134342 53 222 0.0 0.0 0.00 0.00 0.00 41 1021.1
20260905133838 54 222 0.0 0.0 0.00 0.00 0.00 41 1021.1
20260905133331 54 222 0.0 0.0 0.00 0.00 0.00 41 1020.7
20260905132826 54 221 0.0 0.0 0.00 0.00 0.00 41 1020.7
20260905132321 54 210 0.0 0.0 0.00 0.00 0.00 39 1020.7
20260905131814 54 210 0.0 0.0 0.00 0.00 0.00 39 1021.1
20260905131309 54 210 0.0 0.0 0.00 0.00 0.00 39 1020.7
20260905130805 54 187 0.0 0.0 0.00 0.00 0.00 40 1020.7
20260905130257 54 225 0.0 0.0 0.00 0.00 0.00 41 1020.7
20260905125752 54 225 0.0 0.0 0.00 0.00 0.00 40 1020.7
20260905125247 54 225 0.0 0.0 0.00 0.00 0.00 40 1020.7
20260905125241 54 225 0.0 0.0 0.00 0.00 0.00 40 1020.7
20260905124236 55 231 0.0 0.0 0.00 0.00 0.00 40 1020.4
20260905123731 55 231 0.0 0.0 0.00 0.00 0.00 40 1020.4
20260905123225 55 216 0.0 0.0 0.00 0.00 0.00 40 1020.4
20260905122719 55 217 0.0 0.0 0.00 0.00 0.00 40 1020.7
20260905122214 55 231 0.0 0.0 0.00 0.00 0.00 40 1020.7
20260905121707 55 220 0.0 0.0 0.00 0.00 0.00 40 1020.7
20260905121202 55 224 0.0 0.0 0.00 0.00 0.00 39 1020.7
20260905120658 56 241 0.0 0.0 0.00 0.00 0.00 39 1020.7
20260905120151 56 225 0.0 0.0 0.00 0.00 0.00 39 1020.7
20260905115645 56 194 0.0 0.0 0.00 0.00 0.00 39 1020.7
20260905115141 56 194 0.0 0.0 0.00 0.00 0.00 40 1020.7
20260905114635 56 206 0.0 0.0 0.00 0.00 0.00 39 1020.7
20260905114129 56 194 0.0 0.0 0.00 0.00 0.00 39 1020.7
20260905113625 56 179 0.0 0.0 0.00 0.00 0.00 39 1020.7
20260905113118 57 218 0.0 0.0 0.00 0.00 0.00 39 1020.7
20260905112618 57 250 0.0 0.0 0.00 0.00 0.00 39 1020.7
20260905112109 57 250 0.0 0.0 0.00 0.00 0.00 39 1020.4
20260905111602 57 231 0.0 0.0 0.00 0.00 0.00 38 1021.1
20260905111557 57 216 0.0 0.0 0.00 0.00 0.00 38 1020.7
20260905110555 58 227 0.0 0.0 0.00 0.00 0.00 37 1020.7
20260905110547 58 208 0.0 0.0 0.00 0.00 0.00 37 1020.7
20260905105540 58 188 0.0 0.0 0.00 0.00 0.00 37 1021.1
20260905105035 58 206 0.0 0.0 0.00 0.00 0.00 37 1020.7
20260905104528 59 214 0.0 0.0 0.00 0.00 0.00 37 1021.1
20260905104523 59 214 0.0 0.0 0.00 0.00 0.00 36 1020.7
20260905103518 59 197 0.0 0.0 0.00 0.00 0.00 36 1020.7
20260905103012 58 246 0.0 0.0 0.00 0.00 0.00 35 1021.1
20260905102507 58 225 0.0 0.0 0.00 0.00 0.00 34 1020.7
20260905102002 58 258 0.0 0.0 0.00 0.00 0.00 34 1021.1
20260905101456 58 225 0.0 0.0 0.00 0.00 0.00 35 1020.7
20260905100949 57 279 0.0 0.0 0.00 0.00 0.00 36 1021.1
20260905100447 57 216 0.0 0.0 0.00 0.00 0.00 36 1021.1
20260905100440 56 234 0.0 0.0 0.00 0.00 0.00 35 1021.1
20260905095433 56 227 0.0 0.0 0.00 0.00 0.00 35 1021.1
20260905094929 56 237 0.0 0.0 0.00 0.00 0.00 35 1020.7
20260905094424 55 215 0.0 0.0 0.00 0.00 0.00 37 1021.1
20260905094419 55 271 0.0 0.0 0.00 0.00 0.00 37 1021.1
20260905093412 55 211 0.0 0.0 0.00 0.00 0.00 37 1021.1
20260905092905 55 224 0.0 0.0 0.00 0.00 0.00 37 1021.4
20260905092400 55 238 0.0 0.0 0.00 0.00 0.00 38 1021.1
20260905091857 55 229 0.0 0.0 0.00 0.00 0.00 38 1021.4
20260905091851 55 229 0.0 0.0 0.00 0.00 0.00 38 1021.4
20260905090843 56 229 0.0 0.0 0.00 0.00 0.00 38 1021.4
20260905090339 56 237 0.0 0.0 0.00 0.00 0.00 38 1021.8
20260905085833 56 231 0.0 0.0 0.00 0.00 0.00 38 1021.4
20260905085327 56 231 0.0 0.0 0.00 0.00 0.00 38 1021.4
20260905084823 56 231 0.0 0.0 0.00 0.00 0.00 38 1021.4
20260905084316 57 227 0.0 0.0 0.00 0.00 0.00 37 1021.4
20260905083811 57 226 0.0 0.0 0.00 0.00 0.00 37 1021.4
20260905083802 57 229 0.0 0.0 0.00 0.00 0.00 37 1021.4
20260905083408 57 227 0.0 0.0 0.00 0.00 0.00 37 1021.4
20260905082254 57 231 0.0 0.0 0.00 0.00 0.00 36 1021.4
20260905081750 57 268 0.0 0.0 0.00 0.00 0.00 36 1021.4
20260905081244 58 205 0.0 0.0 0.00 0.00 0.00 36 1021.4
20260905080737 58 205 0.0 0.0 0.00 0.00 0.00 35 1021.4
20260905080233 58 194 0.0 0.0 0.00 0.00 0.00 34 1021.8
20260905075535 58 194 0.0 0.0 0.00 0.00 0.00 35 1021.4
20260905075029 58 195 0.0 0.0 0.00 0.00 0.00 35 1021.4
20260905074523 59 218 0.0 0.0 0.00 0.00 0.00 35 1021.4
20260905074018 59 227 0.0 0.0 0.00 0.00 0.00 35 1021.4
20260905073513 59 225 0.0 0.0 0.00 0.00 0.00 33 1021.1
20260905073008 60 226 0.0 0.0 0.00 0.00 0.00 34 1021.1
20260905072502 60 226 0.0 0.0 0.00 0.00 0.00 33 1021.1
20260905071956 60 232 0.0 0.0 0.00 0.00 0.00 32 1021.1
20260905071451 60 211 0.0 0.0 0.00 0.00 0.00 32 1021.4
20260905071442 60 208 0.0 0.0 0.00 0.00 0.00 32 1021.4
20260905071047 60 216 0.0 0.0 0.00 0.00 0.00 32 1021.1
20260905065934 60 180 0.0 0.0 0.00 0.00 0.00 32 1021.4
20260905065428 60 224 0.0 0.0 0.00 0.00 0.00 32 1021.4
20260905064923 60 218 0.0 0.0 0.00 0.00 0.00 32 1021.4
20260905064417 59 34 0.0 0.0 0.00 0.00 0.00 30 1021.1
20260905063912 59 232 0.0 0.0 0.00 0.00 0.00 32 1021.1
20260905063407 59 218 0.0 0.0 0.00 0.00 0.00 33 1021.1
20260905062901 59 224 0.0 0.0 0.00 0.00 0.00 32 1021.1
20260905062356 59 236 0.0 0.0 0.00 0.00 0.00 32 1021.4
20260905061850 60 230 0.0 0.0 0.00 0.00 0.00 33 1021.1
20260905061344 60 230 0.0 0.0 0.00 0.00 0.00 33 1021.4
20260905060840 60 234 0.0 0.0 0.00 0.00 0.00 33 1021.4
20260905060835 61 234 0.0 0.0 0.00 0.00 0.00 33 1021.4
20260905055829 61 224 0.0 0.0 0.00 0.00 0.00 32 1021.1
20260905055824 61 224 0.0 0.0 0.00 0.00 0.00 32 1021.4
20260905054817 62 229 0.0 0.0 0.00 0.00 0.00 32 1021.4
20260905054409 62 225 0.0 0.0 0.00 0.00 0.00 30 1021.4
20260905054311 62 232 0.0 0.0 0.00 0.00 0.00 31 1021.1
20260905054302 63 219 0.0 0.0 0.00 0.00 0.00 30 1021.4
20260905052755 63 238 0.0 0.0 0.00 0.00 0.00 30 1021.8
20260905052249 63 231 0.0 0.0 0.00 0.00 0.00 30 1021.8
20260905051744 63 238 0.0 0.0 0.00 0.00 0.00 28 1021.8
20260905051239 63 235 0.0 0.0 0.00 0.00 0.00 28 1021.4
20260905050733 64 293 0.0 0.0 0.00 0.00 0.00 28 1021.4
20260905050728 64 203 0.0 0.0 0.00 0.00 0.00 28 1021.8
20260905045722 64 232 0.0 0.0 0.00 0.00 0.00 28 1021.4
20260905045216 64 230 0.0 0.0 0.00 0.00 0.00 28 1021.8
20260905045207 64 239 0.0 0.0 0.00 0.00 0.00 28 1021.8
20260905044812 64 214 0.0 0.0 0.00 0.00 0.00 28 1021.8
20260905043659 65 260 0.0 0.0 0.00 0.00 0.00 29 1021.8
20260905043155 65 249 0.0 0.0 0.00 0.00 0.00 28 1021.4
20260905042648 65 312 0.0 0.0 0.00 0.00 0.00 28 1021.8
20260905042143 66 320 0.0 0.0 0.00 0.00 0.00 29 1021.4
20260905042138 66 234 0.0 0.0 0.00 0.00 0.00 29 1021.1
20260905041133 67 240 0.0 0.9 0.00 0.00 0.00 31 1021.1
20260905040626 67 201 0.0 0.9 0.00 0.00 0.00 30 1021.4
20260905040121 67 207 0.0 0.9 0.00 0.00 0.00 30 1021.1
20260905035615 67 235 0.0 0.9 0.00 0.00 0.00 31 1021.1
20260905035110 67 256 0.0 0.9 0.00 0.00 0.00 31 1020.7
20260905034607 68 351 0.0 0.9 0.00 0.00 0.00 30 1020.7
20260905034600 68 206 0.0 0.0 0.00 0.00 0.00 30 1020.7
20260905033554 68 293 0.0 0.0 0.00 0.00 0.00 29 1020.7
20260905033047 68 269 0.0 0.9 0.00 0.00 0.00 29 1020.7
20260905032543 69 297 0.0 0.9 0.00 0.00 0.00 28 1020.7
20260905032037 69 302 0.0 0.0 0.00 0.00 0.00 28 1020.4
20260905031532 69 188 0.0 0.0 0.00 0.00 0.00 27 1020.7
20260905031026 69 207 0.0 0.0 0.00 0.00 0.00 25 1020.7
20260905030520 69 214 0.0 0.0 0.00 0.00 0.00 25 1020.4
20260905030515 70 270 0.0 0.0 0.00 0.00 0.00 24 1020.1
20260905025509 70 293 0.0 0.0 0.00 0.00 0.00 24 1020.4
20260905025004 70 240 0.0 0.0 0.00 0.00 0.00 24 1020.4
20260905024459 70 276 0.0 0.0 0.00 0.00 0.00 24 1020.4
20260905023952 71 291 0.0 0.9 0.00 0.00 0.00 22 1020.1
20260905023447 71 13 0.0 0.9 0.00 0.00 0.00 22 1020.1
20260905022942 71 236 0.0 0.0 0.00 0.00 0.00 21 1020.1
20260905022436 72 201 0.0 1.7 0.00 0.00 0.00 21 1020.1
20260905021931 72 208 0.0 1.7 0.00 0.00 0.00 21 1020.1
20260905021425 72 242 0.0 0.0 0.00 0.00 0.00 20 1020.1
20260905020921 73 310 0.0 0.0 0.00 0.00 0.00 20 1019.7
20260905020915 73 297 0.0 1.7 0.00 0.00 0.00 19 1020.1
20260905015908 74 185 0.0 1.7 0.00 0.00 0.00 19 1019.7
20260905015403 74 308 0.0 0.9 0.00 0.00 0.00 19 1020.1
20260905014857 75 291 0.0 0.0 0.00 0.00 0.00 18 1020.1
20260905014352 75 321 0.0 0.0 0.00 0.00 0.00 17 1020.1
20260905013846 75 282 0.0 0.0 0.00 0.00 0.00 16 1020.1
20260905013838 76 227 0.0 1.7 0.00 0.00 0.00 15 1019.7
20260905013442 76 220 0.0 0.0 0.00 0.00 0.00 16 1020.1